Location: Tierra del Sol
(32.6128°N, 116.3319°W)
Time: 11:44:24
(UTC-07:00)

Tiangong 2 - Pass Details

Date: 15 October 2017
Orbit: 388 x 391 km, 42.8° (Epoch: 23 October)

Event Time Altitude Azimuth Distance (km) Brightness Sun altitude
Exits shadow 05:40:27 11° 338° (NNW) 1,346 3.6 -15.3°
Maximum altitude 05:41:53 14° 6° (N) 1,206 3.6 -15.0°
Drops below altitude 10° 05:43:40 10° 40° (NE) 1,420 4.5 -14.6°
Sets 05:46:30 0° 67° (ENE) 2,275 6.3 -14.0°
